La Porte, IN

3:13 AM CDT on October 19, 2017 (GMT -0500)
La Porte Municipal

Weather History for KPPO - April, 2013

Change the Weather History Date:

Friday, April 26, 2013

  Actual Average (KSBN) Record (KSBN)
Temperature  
Mean Temperature 46 °F -  
Max Temperature 63 °F 65 °F 88 °F (1915)
Min Temperature 29 °F 41 °F 25 °F (1997)
Degree Days  
Heating Degree Days 19    
Moisture  
Dew Point 34 °F    
Average Humidity 61    
Maximum Humidity 91    
Minimum Humidity 38    
Precipitation  
Precipitation 0.00 in - - ()
Sea Level Pressure  
Sea Level Pressure 30.35 in    
Wind  
Wind Speed 5 mph (South)    
Max Wind Speed 16 mph    
Max Gust Speed 23 mph    
Visibility 10 miles    
Events      
Averages and records for this station are not official NWS values.
T = Trace of Precipitation, MM = Missing Value Source: NWS Daily Summary

Daily Weather History Graph

Daily Weather History Graph

Search for Another Location

Airport or City:

Trip Planner

Search our weather history database for the weather conditions in past years. The results will help you decide how hot, cold, wet, or windy it might be!

Date:

Astronomy

Apr. 26, 2013 Rise Set
Actual Time 5:50 AM CDT 7:39 PM CDT
Civil Twilight 5:20 AM CDT 8:09 PM CDT
Nautical Twilight 4:44 AM CDT 8:45 PM CDT
Astronomical Twilight 4:05 AM CDT 9:24 PM CDT
Moon 9:02 PM CDT (4/26) 6:16 AM CDT (4/26)
Length of Visible Light 14h 49m
Length of Day
13h 49m
Full, 99% of the Moon is Illuminated
Apr 26
Full
May 2
Last Quarter
May 9
New
May 17
First Quarter
May 24
Full

Hourly Weather History & Observations

Time (CDT) Temp. Windchill Dew Point Humidity Pressure Visibility Wind Dir Wind Speed Gust Speed Precip Events Conditions
12:15 AM 32.0 °F - 28.2 °F 86% 30.36 in 10.0 mi Calm Calm - N/A   Scattered Clouds
12:35 AM 31.8 °F - 27.5 °F 84% 30.36 in 10.0 mi Calm Calm - N/A   Scattered Clouds
12:55 AM 32.2 °F - 28.4 °F 86% 30.36 in 10.0 mi Calm Calm - N/A   Scattered Clouds
1:15 AM 30.7 °F - 27.0 °F 86% 30.36 in 10.0 mi Calm Calm - N/A   Scattered Clouds
1:35 AM 32.0 °F - 29.1 °F 89% 30.36 in 10.0 mi Calm Calm - N/A   Scattered Clouds
1:55 AM 32.2 °F - 29.5 °F 90% 30.36 in 10.0 mi Calm Calm - N/A   Clear
2:15 AM 30.2 °F - 26.6 °F 86% 30.36 in 10.0 mi Calm Calm - N/A   Scattered Clouds
2:35 AM 30.7 °F - 28.2 °F 90% 30.36 in 10.0 mi Calm Calm - N/A   Scattered Clouds
2:55 AM 31.1 °F - 28.0 °F 88% 30.36 in 10.0 mi Calm Calm - N/A   Scattered Clouds
3:15 AM 30.0 °F - 26.6 °F 87% 30.36 in 10.0 mi Calm Calm - N/A   Scattered Clouds
3:35 AM 29.7 °F - 26.2 °F 87% 30.36 in 10.0 mi Calm Calm - N/A   Scattered Clouds
3:55 AM 29.5 °F - 27.1 °F 91% 30.37 in 10.0 mi Calm Calm - N/A   Clear
4:15 AM 29.8 °F - 26.1 °F 86% 30.37 in 10.0 mi Calm Calm - N/A   Scattered Clouds
4:35 AM 30.9 °F - 28.0 °F 89% 30.37 in 10.0 mi Calm Calm - N/A   Scattered Clouds
4:55 AM 32.0 °F - 27.5 °F 83% 30.37 in 10.0 mi Calm Calm - N/A   Clear
5:15 AM 32.0 °F - 27.5 °F 83% 30.37 in 10.0 mi Calm Calm - N/A   Scattered Clouds
5:35 AM 32.0 °F - 27.9 °F 85% 30.37 in 10.0 mi Calm Calm - N/A   Scattered Clouds
5:55 AM 32.2 °F - 28.0 °F 85% 30.38 in 10.0 mi Calm Calm - N/A   Scattered Clouds
6:15 AM 32.2 °F - 27.9 °F 84% 30.37 in 10.0 mi Calm Calm - N/A   Scattered Clouds
6:55 AM 35.1 °F 32.2 °F 28.8 °F 78% 30.39 in 10.0 mi SSE 3.5 mph - N/A   Clear
7:15 AM 36.7 °F 32.9 °F 29.8 °F 76% 30.39 in 10.0 mi SSE 4.6 mph - N/A   Clear
7:35 AM 38.5 °F 35.0 °F 30.4 °F 73% 30.40 in 10.0 mi SSE 4.6 mph - N/A   Clear
7:55 AM 40.1 °F 35.3 °F 31.1 °F 70% 30.40 in 10.0 mi SSE 6.9 mph - N/A   Clear
8:15 AM 42.1 °F 39.2 °F 32.0 °F 67% 30.39 in 10.0 mi SSE 4.6 mph - N/A   Clear
8:35 AM 43.0 °F 37.7 °F 32.4 °F 66% 30.39 in 10.0 mi South 9.2 mph - N/A   Clear
8:55 AM 44.6 °F 39.7 °F 32.4 °F 62% 30.40 in 10.0 mi South 9.2 mph - N/A   Clear
9:15 AM 47.3 °F - 33.3 °F 58% 30.39 in 10.0 mi South 8.1 mph - N/A   Clear
9:35 AM 50.2 °F - 33.8 °F 53% 30.39 in 10.0 mi South 10.4 mph - N/A   Clear
9:55 AM 52.2 °F - 33.6 °F 49% 30.39 in 10.0 mi South 10.4 mph 16.1 mph N/A   Clear
10:15 AM 52.9 °F - 32.7 °F 46% 30.39 in 10.0 mi South 11.5 mph 16.1 mph N/A   Clear
10:35 AM 53.8 °F - 33.1 °F 45% 30.39 in 10.0 mi South 13.8 mph - N/A   Clear
10:55 AM 54.9 °F - 34.7 °F 47% 30.39 in 10.0 mi South 10.4 mph 18.4 mph N/A   Clear
11:15 AM 55.9 °F - 34.7 °F 45% 30.39 in 10.0 mi South 12.7 mph - N/A   Clear
11:35 AM 56.5 °F - 34.9 °F 44% 30.39 in 10.0 mi South 13.8 mph - N/A   Clear
11:55 AM 58.1 °F - 35.1 °F 42% 30.38 in 10.0 mi SSW 16.1 mph 20.7 mph N/A   Clear
12:15 PM 58.1 °F - 35.2 °F 42% 30.37 in 10.0 mi SSE 15.0 mph 19.6 mph N/A   Clear
12:35 PM 59.5 °F - 37.0 °F 43% 30.37 in 10.0 mi South 16.1 mph 21.9 mph N/A   Clear
12:55 PM 59.7 °F - 35.4 °F 40% 30.36 in 10.0 mi South 16.1 mph 21.9 mph N/A   Clear
1:15 PM 60.4 °F - 36.3 °F 41% 30.36 in 10.0 mi South 13.8 mph 19.6 mph N/A   Clear
1:35 PM 61.0 °F - 36.7 °F 40% 30.35 in 10.0 mi South 13.8 mph 20.7 mph N/A   Clear
1:55 PM 61.7 °F - 36.7 °F 39% 30.34 in 10.0 mi SSW 15.0 mph 20.7 mph N/A   Clear
2:15 PM 62.2 °F - 36.7 °F 39% 30.34 in 10.0 mi SSW 16.1 mph 20.7 mph N/A   Clear
2:35 PM 62.1 °F - 37.6 °F 40% 30.33 in 10.0 mi SSW 11.5 mph 20.7 mph N/A   Clear
2:55 PM 62.1 °F - 37.2 °F 40% 30.33 in 10.0 mi SSW 13.8 mph 23.0 mph N/A   Clear
3:15 PM 62.8 °F - 37.8 °F 40% 30.32 in 10.0 mi SW 16.1 mph 19.6 mph N/A   Clear
3:35 PM 63.5 °F - 37.2 °F 38% 30.31 in 10.0 mi SSW 15.0 mph - N/A   Clear
3:55 PM 62.8 °F - 37.9 °F 40% 30.31 in 10.0 mi South 10.4 mph 18.4 mph N/A   Clear
4:15 PM 63.3 °F - 38.1 °F 39% 30.30 in 10.0 mi SSW 11.5 mph 18.4 mph N/A   Clear
4:35 PM 63.7 °F - 37.8 °F 38% 30.30 in 10.0 mi SW 15.0 mph 18.4 mph N/A   Clear
4:55 PM 62.6 °F - 37.6 °F 40% 30.30 in 10.0 mi SSW 13.8 mph 20.7 mph N/A   Clear
5:15 PM 63.5 °F - 37.9 °F 39% 30.30 in 10.0 mi SSW 15.0 mph 20.7 mph N/A   Clear
5:35 PM 62.8 °F - 38.7 °F 41% 30.30 in 10.0 mi South 11.5 mph 17.3 mph N/A   Clear
5:55 PM 62.6 °F - 38.3 °F 41% 30.30 in 10.0 mi SSW 13.8 mph 17.3 mph N/A   Clear
6:15 PM 62.2 °F - 37.8 °F 40% 30.30 in 10.0 mi South 11.5 mph 19.6 mph N/A   Clear
6:35 PM 61.7 °F - 38.8 °F 43% 30.30 in 10.0 mi SSW 6.9 mph - N/A   Clear
6:55 PM 61.0 °F - 38.8 °F 44% 30.30 in 10.0 mi South 11.5 mph 19.6 mph N/A   Clear
7:15 PM 59.7 °F - 39.7 °F 48% 30.30 in 10.0 mi South 9.2 mph - N/A   Clear
7:35 PM 58.3 °F - 39.7 °F 50% 30.30 in 10.0 mi South 6.9 mph - N/A   Clear
7:55 PM 57.4 °F - 39.9 °F 52% 30.31 in 10.0 mi SSW 4.6 mph - N/A   Clear
8:15 PM 56.3 °F - 39.7 °F 54% 30.31 in 10.0 mi South 6.9 mph - N/A   Clear
8:35 PM 54.5 °F - 40.1 °F 58% 30.32 in 10.0 mi South 4.6 mph - N/A   Clear
8:55 PM 53.8 °F - 40.1 °F 60% 30.32 in 10.0 mi South 4.6 mph - N/A   Clear
9:15 PM 52.7 °F - 39.7 °F 61% 30.32 in 10.0 mi South 3.5 mph - N/A   Clear
9:35 PM 52.7 °F - 39.2 °F 60% 30.32 in 10.0 mi South 4.6 mph - N/A   Clear
9:55 PM 51.8 °F - 39.2 °F 62% 30.32 in 10.0 mi South 5.8 mph - N/A   Clear
10:15 PM 51.8 °F - 38.7 °F 61% 30.32 in 10.0 mi South 4.6 mph - N/A   Clear
10:35 PM 50.9 °F - 38.5 °F 62% 30.32 in 10.0 mi South 3.5 mph - N/A   Clear
10:55 PM 50.7 °F - 38.3 °F 62% 30.32 in 10.0 mi South 3.5 mph - N/A   Clear
11:15 PM 46.6 °F - 37.8 °F 71% 30.32 in 10.0 mi Calm Calm - N/A   Scattered Clouds
11:35 PM 47.3 °F - 38.5 °F 71% 30.33 in 10.0 mi South 4.6 mph - N/A   Scattered Clouds
11:55 PM 47.8 °F - 38.3 °F 70% 30.33 in 10.0 mi South 3.5 mph - N/A   Clear